Regional Weather Roundup
Issued by NWS

Home | Current Version | Previous Version | Graphics & Text | Print | Product List | Glossary Off
Versions: 1 2 3 4 5 6 7 8 9 10 11 12 13 14 15 16 17 18 19 20 21 22 23 24 25 26 27 28 29 30 31 32 33 34 35 36 37 38 39 40 41 42 43 44 45 46 47 48 49 50

000
ASUS43 KMKX 300159
RWRWI

WISCONSIN REGIONAL WEATHER ROUNDUP
NATIONAL WEATHER SERVICE MILWAUKEE/SULLIVAN WI
800 PM CST THU JAN 29 2015

NOTE: "FAIR" INDICATES FEW OR NO CLOUDS BELOW 12,000 FEET WITH NO
SIGNIFICANT WEATHER AND/OR OBSTRUCTIONS TO VISIBILITY.

WIZ001-002-006>008-014>016-023>028-300300-
NORTHWEST WISCONSIN

CITY           SKY/WX    TMP DP  RH WIND       PRES   REMARKS
SUPERIOR ARPT  PTCLDY    13   3  66 NW10      30.49R WCI  -1
ASHLAND        MOCLDY    17   7  64 NW10G17   30.42R WCI   5
HAYWARD        CLOUDY    14   4  64 N8        30.40R WCI   3
SIREN          FAIR      15   7  69 NW8       30.45R WCI   4
CUMBERLAND     PTCLDY    16   5  62 N15       30.40R WCI   1
RICE LAKE      CLOUDY    18   8  65 NW13      30.42R WCI   5
CHETEK         CLOUDY    19   9  65 NW8       30.39R WCI   9
LADYSMITH      FLURRIES  20  10  67 N24       30.37R WCI   3
EAU CLAIRE     CLOUDY    22  11  62 NW12      30.38R WCI  10
MENOMONIE      CLOUDY    22  11  62 NW18G24   30.40R WCI   8
NEW RICHMOND   CLEAR     17   9  71 NW14G21   30.44R WCI   3
OSCEOLA        CLEAR     17   8  67 N10G18    30.49R WCI   5
$$

WIZ003>005-009-010-017-018-300300-
NORTH CENTRAL WISCONSIN

CITY           SKY/WX    TMP DP  RH WIND       PRES   REMARKS
MANITOWISH WTR LGT SNOW  16   9  75 N12G25    30.27R WCI   2
ARBOR VITAE    CLOUDY    19  12  73 N17G24    30.26R HAZE    WCI   4
WOODRUFF       CLOUDY    19  12  73 N17G24    30.26R HAZE    WCI   4
RHINELANDER    FLURRIES  18  10  71 NW12G24   30.25R WCI   5
EAGLE RIVER    LGT SNOW  17  10  74 N16G24    30.23R WCI   2
LAND O LAKES   LGT SNOW  17  12  81 N12G22    30.24R WCI   4
PHILLIPS       CLOUDY    17  10  74 NW14G20   30.29R WCI   3
TOMAHAWK       LGT SNOW  19  14  81 N10G17    30.26R WCI   7
MEDFORD        FLURRIES  20  12  72 NW20      30.27R WCI   4
MERRILL        FLURRIES  21  15  77 N7        30.26R WCI  12
$$

WIZ029-030-035-036-043>047-300300-
CENTRAL WISCONSIN

CITY           SKY/WX    TMP DP  RH WIND       PRES   REMARKS
WAUSAU         CLOUDY    22  13  68 N12G20    30.26R WCI  10
MOSINEE        FLURRIES  23  16  74 NW16      30.27R WCI  10
MARSHFIELD     CLOUDY    23  12  62 NW22      30.29R WCI   8
STEVENS POINT  CLOUDY    23  14  67 N12G23    30.26R WCI  12
WAUPACA        CLOUDY    29  14  54 N13G23    30.25R WCI  18
WAUTOMA        NOT AVBL
WISC RAPIDS    CLOUDY    26  12  55 NW18G24   30.29R WCI  13
CAMP DOUGLAS   NOT AVBL
$$

WIZ011>013-019>022-031-037>040-048>050-300300-
NORTHEAST WISCONSIN

CITY           SKY/WX    TMP DP  RH WIND       PRES   REMARKS
ANTIGO         CLOUDY    19  14  81 N14G21    30.22R WCI   6
SHAWANO        CLOUDY    26  11  53 N13G23    30.26R WCI  15
OCONTO         MOCLDY    23  11  60 MISG      30.25R
STURGEON BAY   MOCLDY    19  10  68 N18G25    30.25R WCI   4
GREEN BAY      CLOUDY    25  13  60 N13G22    30.25R WCI  14
MANITOWOC      NOT AVBL
APPLETON       CLOUDY    27  12  54 NW21G29   30.25R WCI  13
CLINTONVILLE   CLOUDY    27  12  54 N13G20    30.25R WCI  16
OSHKOSH        CLOUDY    27  13  55 N23G35    30.23R WCI  12
$$

WIZ032>034-041-042-053>061-300300-
SOUTHWEST WISCONSIN

CITY           SKY/WX    TMP DP  RH WIND       PRES   REMARKS
LA CROSSE      CLOUDY    28  16  60 NW14      30.36R WCI  17
SPARTA         CLOUDY    28  15  59 NW17      30.34R WCI  15
VIROQUA        CLOUDY    26  17  67 NW20G25   30.30R WCI  13
BOSCOBEL       CLOUDY    30  15  53 NW9G20    30.35R WCI  22
PRAIRIE DU CHI CLOUDY    30  16  55 NW20G26   30.34R WCI  17
PLATTEVILLE    CLOUDY    31  22  71 W15G23    30.28R WCI  20
$$

WIZ056-057-062-063-064-067-068-300300-
SOUTH CENTRAL WISCONSIN

CITY           SKY/WX    TMP DP  RH WIND       PRES   REMARKS
REEDSBURG      CLOUDY    28  17  63 NW18G26   30.27R WCI  16
BARABOO/DELLS  CLOUDY    29  18  62 NW15      30.26R WCI  18
LONE ROCK      NOT AVBL
MINERAL POINT  CLOUDY    32  19  59 NW18G28   30.26R WCI  20
MADISON        FLURRIES  31  18  58 NW14G25   30.25R WCI  21
MIDDLETON      CLOUDY    32  19  59 NW20G29   30.25R WCI  20
WATERTOWN      CLOUDY    32  20  62 NW15G24   30.20R WCI  21
MONROE         CLOUDY    32  23  69 NW12G18   30.23R WCI  23
JANESVILLE     CLOUDY    34  19  55 N17G23    30.22R WCI  23
$$

WIZ051-052-058>065-066-070>072-300300-
SOUTHEAST WISCONSIN

CITY           SKY/WX    TMP DP  RH WIND       PRES   REMARKS
MILWAUKEE      CLOUDY    33  17  51 N18G25    30.19R WCI  22
WAUKESHA       CLOUDY    30  18  59 NW21G28   30.19R WCI  17
MILWAUKEE/TIMM FLURRIES  32  18  55 N18G30    30.20R WCI  20
RACINE         CLOUDY    34  19  54 N10       30.20R WCI  26
BURLINGTON     CLOUDY    32  19  57 NW21      30.19R WCI  20
KENOSHA        CLOUDY    34  20  56 NW9       30.18R WCI  27
FOND DU LAC    CLOUDY    28  16  60 N20G33    30.24R WCI  15
SHEBOYGAN      CLOUDY    28  16  60 N21G31    30.21R WCI  15
WEST BEND      CLOUDY    30  18  59 N17G26    30.19R WCI  18
JUNEAU         CLOUDY    31  18  60 NW9G22    30.22R WCI  22
$$

LSZ147-162-300300-
LAKE SUPERIOR

STATION/POSITION TIME  TEMP    WIND        PRES    WAVE
                       AIR SEA DIR/SP/G            HT/PER
                 (UTC) (F)     (DEG/KT/KT) (MB)    (FT/S)
DEVILS ISLAND    0100   17     330/ 21/ 27 1030.8R
PORT WING        0100   19     330/ 19/ 26 1030.1R
SAXON HARBOR     0100   22     330/ 18/ 23 1028.4R
$$

LMZ867-665-643>646-300300-
LAKE MICHIGAN

STATION/POSITION TIME  TEMP    WIND        PRES    WAVE
                       AIR SEA DIR/SP/G            HT/PER
                 (UTC) (F)     (DEG/KT/KT) (MB)    (FT/S)
NORTHPORT PIER   0105   20     330/ 24     1022.7R
SISTER BAY       0113   20      10/ 21/ 26   N/A
KEWAUNEE LAKESHO 0100   27     340/ 14/ 21 1021.2R
SHEBOYGAN LAKESH 0100   31     340/ 21/ 26 1022.7R
PORT WASHINGTON  0140   32     330/ 10/ 19 1023.0R
MILWAUKEE LAKESH 0100   35     340/ 15/ 20   N/A
KENOSHA   LAKESH 0100   35     320/ 14/ 19 1021.3R
$$

TC  - TEMPERATURE IN CELSIUS
VSB - VISIBILITY IN STATUTE MILES
WCI - WIND CHILL INDEX
HX  - HEAT INDEX



USA.gov is the U.S. government's official web portal to all federal, state and local government web resources and services.